Cahokia, IL

6:51 AM CDT on July 23, 2017 (GMT -0500)
Saint Louis Downtown

Weather History for KCPS - November, 2012

Change the Weather History Date:

Monday, November 5, 2012

  Actual Average Record
Temperature  
Mean Temperature 42 °F -  
Max Temperature 43 °F 40 °F 81 °F (1999)
Min Temperature 41 °F 32 °F 26 °F (1959)
Degree Days  
Heating Degree Days 23    
Moisture  
Dew Point 38 °F    
Average Humidity 85    
Maximum Humidity 89    
Minimum Humidity 74    
Precipitation  
Precipitation 0.06 in - - ()
Sea Level Pressure  
Sea Level Pressure 30.12 in    
Wind  
Wind Speed 6 mph (ESE)    
Max Wind Speed 10 mph    
Max Gust Speed -    
Visibility 7 miles    
Events Rain    
Averages and records for this station are not official NWS values.
T = Trace of Precipitation, MM = Missing Value Source: NWS Daily Summary

Daily Weather History Graph

Daily Weather History Graph

Search for Another Location

Airport or City:

Trip Planner

Search our weather history database for the weather conditions in past years. The results will help you decide how hot, cold, wet, or windy it might be!

Date:

Astronomy

Nov. 05, 2012 Rise Set
Actual Time 6:32 AM CST 4:55 PM CST
Civil Twilight 6:04 AM CST 5:23 PM CST
Nautical Twilight 5:32 AM CST 5:55 PM CST
Astronomical Twilight 5:01 AM CST 6:26 PM CST
Moon 10:33 PM CST (11/5) 11:51 AM CST (11/5)
Length of Visible Light 11h 19m
Length of Day
10h 23m
Waning Gibbous, 62% of the Moon is Illuminated
Nov 5
Waning Gibbous
Nov 6
Last Quarter
Nov 13
New
Nov 20
First Quarter
Nov 28
Full

Hourly Weather History & Observations

Time (CST) Temp. Windchill Dew Point Humidity Pressure Visibility Wind Dir Wind Speed Gust Speed Precip Events Conditions
12:53 AM 42.1 °F 39.2 °F 35.1 °F 76% 30.17 in 10.0 mi SE 4.6 mph - N/A   Mostly Cloudy
1:53 AM 42.1 °F 38.4 °F 35.1 °F 76% 30.17 in 10.0 mi SE 5.8 mph - N/A   Overcast
4:53 AM 43.0 °F 38.8 °F 35.1 °F 74% 30.12 in 10.0 mi SE 6.9 mph - 0.00 in Rain Light Rain
6:53 AM 41.0 °F 35.2 °F 37.0 °F 86% 30.12 in 10.0 mi ESE 9.2 mph - 0.00 in Rain Light Rain
8:53 AM 42.1 °F 37.1 °F 37.9 °F 85% 30.12 in 6.0 mi ESE 8.1 mph - 0.02 in Rain Light Rain
9:53 AM 43.0 °F 37.7 °F 37.9 °F 82% 30.12 in 7.0 mi SE 9.2 mph - 0.01 in Rain Light Rain
10:53 AM 43.0 °F 37.2 °F 37.9 °F 82% 30.11 in 10.0 mi ESE 10.4 mph - 0.00 in   Overcast
11:53 AM 42.1 °F 37.7 °F 39.0 °F 89% 30.12 in 2.5 mi SSE 6.9 mph - 0.02 in Rain Light Rain
12:53 PM 43.0 °F 39.5 °F 39.9 °F 89% 30.11 in 4.0 mi ESE 5.8 mph - 0.01 in   Overcast
1:53 PM 43.0 °F 38.2 °F 39.9 °F 89% 30.09 in 7.0 mi East 8.1 mph - N/A   Overcast
2:50 PM 42.8 °F 38.6 °F 39.2 °F 87% 30.09 in 7.0 mi East 6.9 mph - N/A   Overcast
2:53 PM 43.0 °F 38.8 °F 39.9 °F 89% 30.09 in 7.0 mi East 6.9 mph - N/A   Overcast
3:07 PM 42.8 °F 38.0 °F 39.2 °F 87% 30.08 in 7.0 mi East 8.1 mph - N/A   Overcast
3:53 PM 43.0 °F 38.8 °F 39.0 °F 86% 30.09 in 7.0 mi ENE 6.9 mph - 0.00 in   Overcast
5:53 PM 43.0 °F 38.8 °F 39.0 °F 86% 30.11 in 5.0 mi East 6.9 mph - N/A   Overcast
6:53 PM 43.0 °F 40.3 °F 39.0 °F 86% 30.12 in 7.0 mi East 4.6 mph - N/A   Overcast
7:53 PM 43.0 °F 41.3 °F 39.0 °F 86% 30.13 in 7.0 mi ENE 3.5 mph - N/A   Overcast
8:28 PM 42.8 °F 41.1 °F 39.2 °F 87% 30.12 in 6.0 mi ENE 3.5 mph - N/A   Overcast
8:48 PM 42.8 °F 39.3 °F 39.2 °F 87% 30.12 in 7.0 mi East 5.8 mph - 0.00 in   Overcast
8:53 PM 43.0 °F 40.3 °F 39.0 °F 86% 30.13 in 5.0 mi East 4.6 mph - 0.00 in   Overcast
9:53 PM 42.1 °F 40.2 °F 37.9 °F 85% 30.12 in 7.0 mi ESE 3.5 mph - N/A   Overcast
10:53 PM 42.1 °F 40.2 °F 37.9 °F 85% 30.10 in 7.0 mi ESE 3.5 mph - N/A   Overcast
11:53 PM 42.1 °F - 37.0 °F 82% 30.10 in 8.0 mi Calm Calm - N/A   Overcast